Lid_Strength_Index
1 1 0 0 -0 -1 -1 -0 -0 -0 -0 -0 -0 -1 -1 -0 -0 2 4 1 3 8 7 6 7 9 10 10 11 12 12 12 12 14 14 14 15 16 16 16 17 15 16 16 15 17 19 15 16 15 15 17 17 16
1 1 0 0 -0 -0 -0 -0 -0 0 0 -0 -0 -1 -1 -1 -0 1 6 1 1 6 7 7 6 6 6 6 9 11 11 12 10 12 13 14 15 15 15 17 16 16 15 16 15 15 15 16 14 15 16 17 15 15
1 1 1 0 0 -0 -0 -0 -0 0 0 0 0 -0 -1 -1 -0 1 4 3 3 8 8 9 11 8 6 6 6 10 11 10 10 10 12 13 14 14 15 16 17 16 15 15 15 15 17 17 15 16 16 16 16 15
1 1 1 1 0 0 0 0 0 0 0 0 0 -0 -0 -1 -0 0 3 2 3 7 9 10 9 10 8 6 6 6 8 9 10 10 11 12 13 13 15 15 15 15 14 15 17 17 16 15 15 14 14 16 16 16
1 1 1 1 1 0 0 0 0 0 0 -0 0 0 -0 -1 -1 1 1 1 1 6 10 11 12 10 9 7 7 7 7 10 10 12 12 13 13 14 16 15 16 16 16 15 16 14 14 13 13 13 13 14 16 16
2 1 1 1 1 1 1 1 0 0 0 0 0 0 -0 -1 -1 2 6 2 1 2 8 12 10 11 11 9 7 7 8 9 9 11 12 13 13 14 16 18 14 15 14 12 13 13 13 13 13 12 12 15 15 16
2 2 2 1 1 1 1 1 0 0 0 0 0 -0 -1 -1 1 4 6 3 0 2 8 13 13 10 10 11 10 10 9 9 9 11 12 13 14 13 16 20 14 15 14 14 15 14 15 15 14 13 13 14 15 16
2 2 2 2 1 1 1 1 1 1 1 0 -0 -0 -0 -1 -0 3 2 0 0 4 7 11 14 12 10 14 13 11 12 11 11 12 14 14 14 13 17 15 15 15 14 15 15 15 14 14 15 16 16 16 17 16
2 2 2 2 1 1 1 1 1 1 1 0 -0 -0 1 4 7 6 -0 -0 1 5 9 13 15 16 10 11 13 14 12 17 13 16 14 15 19 18 18 17 19 20 19 19 16 17 16 16 16 17 18 18 18 18
2 2 2 2 1 1 1 1 1 1 1 1 2 6 13 4 0 0 3 5 6 7 8 12 15 15 10 12 16 18 18 19 23 17 14 20 22 19 21 22 22 23 23 22 20 19 19 18 17 17 17 17 17 17
2 2 2 1 1 1 1 1 1 1 1 4 7 8 7 0 4 6 8 9 8 11 8 10 18 13 10 18 18 13 19 21 23 20 19 26 25 21 23 24 24 24 24 23 23 21 20 20 19 18 19 20 19 19
2 2 2 1 1 1 1 1 1 3 4 4 5 4 3 8 7 11 11 9 10 12 12 14 13 13 14 11 15 13 18 18 23 22 21 25 22 26 27 27 27 27 28 27 26 25 23 23 24 23 24 24 24 24
2 2 2 2 2 1 1 1 1 0 1 3 5 8 8 13 12 17 17 16 14 14 12 13 13 13 12 10 13 13 16 18 16 23 23 25 25 28 30 30 30 30 29 29 28 27 27 28 28 28 28 28 28 27
1 1 2 3 3 2 2 1 1 1 3 7 9 15 11 15 16 13 21 16 12 14 13 10 13 12 10 12 12 15 15 16 23 23 23 30 30 32 31 31 34 32 32 30 30 29 29 29 30 30 30 30 30 30
1 1 2 3 3 2 2 1 1 2 6 10 12 17 12 17 23 22 17 13 13 9 9 11 12 11 14 13 14 15 19 19 22 24 31 30 30 31 32 33 34 33 32 32 32 31 30 30 30 31 31 31 30 29
2 3 6 3 3 2 2 2 4 8 14 18 19 16 18 21 20 22 19 15 16 9 9 10 12 14 15 15 16 21 21 25 30 34 31 29 31 31 32 33 33 33 33 32 32 32 30 30 31 33 31 30 30 30
4 11 4 3 3 4 4 8 11 15 16 22 22 22 26 23 22 21 21 23 20 16 12 11 15 16 14 20 27 29 30 31 30 30 29 30 30 31 31 32 34 35 34 32 32 30 31 33 32 29 29 32 32 32
11 8 4 3 5 8 13 13 15 20 22 20 21 22 24 25 26 26 25 24 22 19 19 23 21 27 29 29 33 32 29 28 28 29 29 29 29 29 30 33 32 32 32 31 32 31 31 29 27 28 30 31 29 29
8 7 5 5 7 12 15 16 16 23 22 20 20 20 22 25 24 26 26 25 25 27 28 30 34 35 35 33 32 32 31 30 29 28 28 28 29 29 28 29 29 29 29 31 29 29 28 28 27 26 26 26 26 27
4 6 6 7 8 13 18 19 15 19 22 21 20 22 23 25 25 26 28 28 29 32 36 37 37 36 34 32 31 31 30 29 29 29 29 28 27 28 28 28 28 28 27 28 27 27 28 27 26 27 28 28 28 30
10 10 11 14 15 17 19 19 20 19 19 22 22 21 24 24 28 29 30 29 32 34 36 34 34 33 31 31 31 31 31 29 30 30 30 29 27 27 27 27 28 28 28 28 29 29 28 29 28 28 30 31 30 30
15 10 18 17 17 18 19 19 20 19 21 22 22 23 27 29 30 31 28 33 34 33 33 33 33 33 32 32 32 31 30 30 29 27 27 27 29 30 30 30 29 30 30 30 31 32 31 30 30 31 31 31 29 30
15 16 20 23 23 24 25 18 23 22 23 24 24 27 28 30 29 27 33 33 33 31 31 31 32 32 31 31 30 29 28 29 30 29 29 29 29 29 30 30 30 32 32 31 32 32 31 29 29 29 29 30 32 31
19 26 29 30 30 32 26 27 23 24 24 27 28 30 30 30 27 32 36 36 33 31 31 31 30 31 31 30 31 30 30 30 30 29 28 28 29 29 29 30 30 30 33 32 32 34 33 33 31 32 33 36 36 36
31 36 34 39 34 34 32 31 31 28 30 29 30 31 31 29 33 35 36 36 33 33 32 31 30 31 32 32 31 30 29 29 30 31 30 28 27 28 29 29 31 31 33 32 32 35 35 36 34 35 35 37 36 35
40 36 39 38 37 37 36 35 35 35 32 32 32 30 31 33 37 39 36 34 33 32 32 32 33 33 32 32 33 33 32 30 30 31 32 31 31 34 34 33 33 31 29 33 35 38 36 34 36 35 33 33 33 36
40 39 33 31 34 35 36 35 35 35 38 38 36 34 34 38 40 36 32 30 31 31 31 31 32 33 34 36 34 35 34 35 36 34 33 35 34 34 34 36 37 35 35 38 39 40 39 38 35 34 32 35 37 37
32 32 36 34 37 39 41 39 40 40 38 36 35 38 38 38 38 33 31 29 30 31 33 35 35 35 36 36 38 38 41 41 38 34 32 35 40 40 40 40 39 26 33 35 34 31 36 35 33 32 33 32 31 32
30 29 30 35 37 37 38 38 37 35 34 38 37 38 38 35 35 33 31 32 35 36 38 38 36 40 38 41 44 46 45 42 39 41 42 42 41 36 38 36 37 36 37 40 30 26 26 26 27 29 31 33 32 32
31 29 33 35 38 37 35 35 36 33 33 36 33 33 35 35 34 33 35 37 37 39 40 42 45 44 45 45 44 41 46 46 42 39 42 42 39 39 38 38 37 37 36 41 34 33 29 31 32 38 36 36 35 35
30 30 33 34 35 35 34 33 36 36 38 40 41 40 41 40 38 39 39 45 47 48 45 44 45 50 45 44 45 45 40 43 45 42 43 41 40 40 38 36 35 36 38 37 35 37 35 34 34 36 36 36 36 35
34 39 36 36 36 34 36 38 42 43 42 40 42 45 41 41 41 40 38 43 43 42 41 46 45 40 42 43 44 42 36 37 38 36 38 36 37 35 34 34 33 34 33 31 33 34 33 35 35 34 34 35 35 35
43 42 44 43 40 40 41 41 41 42 42 44 43 47 47 42 38 35 35 40 37 39 40 40 40 42 41 40 39 39 36 38 38 29 26 26 27 27 27 28 31 29 30 32 32 32 34 35 35 35 35 35 35 35